sat.trackr.live / text

‹ back to catalog

STARLINK-30554

NORAD 58048 · 2023-156W

PAYLOAD ACTIVE UNKNOWN

§ Identity

Operator
Country
US
Launch date
2023-10-09
Launch site
AFWTR
Launch vehicle
Mass (kg)
RCS (m²)

Purposes: comms

External: N2YO · Heavens-Above · Gunter

§ Orbital elements

Epoch: 2026-05-24T09:09:10.221120Z

Period
94.11 min
Inclination
53.1594°
Eccentricity
0.0001051
Mean motion
15.30194452 rev/d
Perigee alt
474.5 km
Apogee alt
476.0 km
Semi-major
6,853.4 km
B*
1.6058e-5
RAAN
176.4573°
Arg perigee
81.7845°
Mean anomaly
278.3275°
Rev number
14,657

§ Raw data

STARLINK-305541 58048U 23156W   26144.38136830  .00000117  00000+0  16058-4 0  99932 58048  53.1594 176.4573 0001051  81.7845 278.3275 15.30194452146578

JSON: /api/v1/satellites/58048 · /tle

For live sub-satellite position, see the globe view (requires WebGL).

§ Visibility from observer

Set your observer location to see the next 7 days of passes ≥ 10°. The values pass through the URL so the page stays shareable.

No JS? Fill the form by hand. The geolocation button needs JavaScript.